JLY1182 SBBE-SBMA

Flight info

Callsign JLY1182
Flight time 0h 52m
Altitude 30000
Route ILSAT
Aircraft B738/M-SDE2E3FGHIRWXY/LB1

Departure

Time 2026-04-20 20:53
Airport Val de Cans/Júlio Cezar Ribeiro International Airport (SBBE)

Arrival

Time 2026-04-20 21:45
Airport João Correa da Rocha Airport (SBMA)
Time Latitude Longitude Altitude Speed Heading
2026-04-20 20:40 -1.38926 -48.47898 42 ft 0 kts 234°
2026-04-20 20:47 -1.38925 -48.47897 42 ft 2 kts 234°
2026-04-20 20:47 -1.38911 -48.47877 40 ft 4 kts 237°
2026-04-20 20:48 -1.38897 -48.47854 41 ft 4 kts 243°
2026-04-20 20:48 -1.38887 -48.47829 38 ft 4 kts 265°
2026-04-20 20:48 -1.38889 -48.47812 38 ft 4 kts 348°
2026-04-20 20:48 -1.38896 -48.47811 40 ft 0 kts
2026-04-20 20:50 -1.38893 -48.47811 39 ft 2 kts
2026-04-20 20:50 -1.38840 -48.47806 39 ft 12 kts
2026-04-20 20:50 -1.38727 -48.47796 42 ft 20 kts
2026-04-20 20:51 -1.38669 -48.47846 42 ft 15 kts 274°
2026-04-20 20:51 -1.38672 -48.47977 43 ft 23 kts 269°
2026-04-20 20:51 -1.38676 -48.48137 43 ft 22 kts 268°
2026-04-20 20:51 -1.38724 -48.48268 43 ft 23 kts 227°
2026-04-20 20:52 -1.38812 -48.48373 43 ft 21 kts 252°
2026-04-20 20:52 -1.38783 -48.48467 42 ft 14 kts
2026-04-20 20:52 -1.38721 -48.48418 41 ft 32 kts 44°
2026-04-20 20:52 -1.38396 -48.48089 42 ft 100 kts 45°
2026-04-20 20:53 -1.37767 -48.47455 41 ft 155 kts 45°
2026-04-20 20:53 -1.36918 -48.46584 247 ft 187 kts 44°
2026-04-20 20:53 -1.36040 -48.45581 905 ft 190 kts 51°
2026-04-20 20:53 -1.35203 -48.44613 1845 ft 181 kts 58°
2026-04-20 20:54 -1.34979 -48.43360 2261 ft 200 kts 105°
2026-04-20 20:54 -1.35812 -48.42201 2470 ft 221 kts 149°
2026-04-20 20:54 -1.37343 -48.41798 2712 ft 238 kts 176°
2026-04-20 20:54 -1.39021 -48.41693 3213 ft 244 kts 176°
2026-04-20 20:55 -1.40719 -48.41578 3838 ft 245 kts 175°
2026-04-20 20:55 -1.42425 -48.41443 3990 ft 245 kts 174°
2026-04-20 20:55 -1.44099 -48.41292 4027 ft 246 kts 174°
2026-04-20 20:55 -1.45836 -48.41120 4033 ft 248 kts 173°
2026-04-20 20:56 -1.47550 -48.40940 4026 ft 247 kts 173°
2026-04-20 20:56 -1.49234 -48.40757 4030 ft 246 kts 173°
2026-04-20 20:56 -1.50960 -48.40565 4035 ft 246 kts 173°
2026-04-20 20:56 -1.52636 -48.40376 4046 ft 245 kts 173°
2026-04-20 20:57 -1.54333 -48.40183 4051 ft 245 kts 173°
2026-04-20 20:57 -1.56034 -48.39988 4050 ft 246 kts 173°
2026-04-20 20:57 -1.57735 -48.39793 4051 ft 247 kts 173°
2026-04-20 20:57 -1.59443 -48.39596 4049 ft 247 kts 173°
2026-04-20 20:58 -1.61154 -48.39399 4043 ft 248 kts 172°
2026-04-20 20:58 -1.62866 -48.39185 4047 ft 247 kts 170°
2026-04-20 20:58 -1.64561 -48.38899 4048 ft 247 kts 169°
2026-04-20 20:58 -1.66254 -48.38596 4046 ft 247 kts 169°
2026-04-20 20:59 -1.67945 -48.38293 4050 ft 247 kts 169°
2026-04-20 20:59 -1.69645 -48.37991 4049 ft 248 kts 169°
2026-04-20 20:59 -1.71345 -48.37691 4043 ft 248 kts 169°
2026-04-20 20:59 -1.73044 -48.37393 4047 ft 248 kts 169°
2026-04-20 21:00 -1.74714 -48.37101 4046 ft 247 kts 169°
2026-04-20 21:00 -1.76407 -48.36807 4047 ft 247 kts 169°
2026-04-20 21:00 -1.78096 -48.36513 4051 ft 246 kts 169°
2026-04-20 21:00 -1.79778 -48.36220 4048 ft 245 kts 169°
2026-04-20 21:01 -1.81463 -48.35915 4124 ft 247 kts 169°
2026-04-20 21:01 -1.83162 -48.35590 4688 ft 249 kts 168°
2026-04-20 21:01 -1.84861 -48.35262 5324 ft 249 kts 168°
2026-04-20 21:01 -1.86573 -48.34932 5875 ft 252 kts 168°
2026-04-20 21:02 -1.88302 -48.34599 6445 ft 254 kts 168°
2026-04-20 21:02 -1.90040 -48.34266 6978 ft 256 kts 168°
2026-04-20 21:02 -1.91797 -48.33928 7490 ft 258 kts 168°
2026-04-20 21:02 -1.93574 -48.33588 8024 ft 261 kts 167°
2026-04-20 21:03 -1.95368 -48.33244 8541 ft 264 kts 167°
2026-04-20 21:03 -1.97179 -48.32898 9063 ft 266 kts 168°
2026-04-20 21:03 -1.99011 -48.32573 9582 ft 269 kts 168°
2026-04-20 21:03 -2.00866 -48.32253 10063 ft 272 kts 168°
2026-04-20 21:04 -2.02742 -48.31930 10523 ft 274 kts 169°
2026-04-20 21:04 -2.04659 -48.31913 11003 ft 279 kts 187°
2026-04-20 21:04 -2.06574 -48.32266 11502 ft 281 kts 189°
2026-04-20 21:04 -2.08476 -48.32651 11977 ft 284 kts 189°
2026-04-20 21:05 -2.10417 -48.33047 12473 ft 286 kts 189°
2026-04-20 21:05 -2.12375 -48.33443 12969 ft 288 kts 189°
2026-04-20 21:05 -2.14348 -48.33837 13484 ft 290 kts 189°
2026-04-20 21:05 -2.16343 -48.34231 13960 ft 293 kts 189°
2026-04-20 21:06 -2.18346 -48.34623 14427 ft 294 kts 189°
2026-04-20 21:06 -2.20363 -48.35015 14899 ft 296 kts 189°
2026-04-20 21:06 -2.22397 -48.35409 15375 ft 298 kts 189°
2026-04-20 21:06 -2.24442 -48.35804 15850 ft 300 kts 189°
2026-04-20 21:07 -2.26500 -48.36200 16316 ft 302 kts 189°
2026-04-20 21:07 -2.28571 -48.36598 16773 ft 305 kts 189°
2026-04-20 21:07 -2.30661 -48.37000 17239 ft 306 kts 188°
2026-04-20 21:07 -2.32761 -48.37403 17691 ft 308 kts 188°
2026-04-20 21:08 -2.34874 -48.37808 18138 ft 311 kts 188°
2026-04-20 21:08 -2.37005 -48.38217 18520 ft 313 kts 188°
2026-04-20 21:08 -2.39150 -48.38629 18907 ft 314 kts 188°
2026-04-20 21:08 -2.41301 -48.39041 19288 ft 316 kts 188°
2026-04-20 21:09 -2.43439 -48.39451 19668 ft 318 kts 188°
2026-04-20 21:09 -2.45643 -48.39874 20050 ft 319 kts 188°
2026-04-20 21:09 -2.47832 -48.40293 20437 ft 321 kts 188°
2026-04-20 21:09 -2.50032 -48.40715 20803 ft 323 kts 188°
2026-04-20 21:10 -2.52213 -48.41133 21162 ft 324 kts 188°
2026-04-20 21:10 -2.54464 -48.41565 21527 ft 326 kts 188°
2026-04-20 21:10 -2.56669 -48.41988 21869 ft 328 kts 188°
2026-04-20 21:10 -2.58912 -48.42418 22208 ft 330 kts 188°
2026-04-20 21:11 -2.61176 -48.42852 22535 ft 332 kts 188°
2026-04-20 21:11 -2.63444 -48.43287 22857 ft 333 kts 188°
2026-04-20 21:11 -2.65730 -48.43725 23188 ft 335 kts 188°
2026-04-20 21:11 -2.68024 -48.44165 23495 ft 337 kts 188°
2026-04-20 21:12 -2.70334 -48.44608 23764 ft 339 kts 188°
2026-04-20 21:12 -2.72655 -48.45053 24024 ft 340 kts 188°
2026-04-20 21:12 -2.74984 -48.45500 24295 ft 341 kts 188°
2026-04-20 21:12 -2.77318 -48.45948 24560 ft 343 kts 188°
2026-04-20 21:13 -2.79664 -48.46398 24820 ft 344 kts 188°
2026-04-20 21:13 -2.82017 -48.46850 25078 ft 345 kts 188°
2026-04-20 21:13 -2.84381 -48.47303 25331 ft 347 kts 188°
2026-04-20 21:13 -2.86756 -48.47759 25579 ft 348 kts 188°
2026-04-20 21:14 -2.89135 -48.48215 25834 ft 348 kts 188°
2026-04-20 21:14 -2.91517 -48.48672 26100 ft 349 kts 188°
2026-04-20 21:14 -2.93912 -48.49132 26330 ft 351 kts 188°
2026-04-20 21:14 -2.96312 -48.49592 26560 ft 352 kts 188°
2026-04-20 21:15 -2.98725 -48.50055 26791 ft 354 kts 188°
2026-04-20 21:15 -3.01146 -48.50520 27021 ft 355 kts 188°
2026-04-20 21:15 -3.03575 -48.50986 27245 ft 356 kts 188°
2026-04-20 21:15 -3.06009 -48.51453 27464 ft 357 kts 188°
2026-04-20 21:16 -3.08457 -48.51923 27676 ft 358 kts 188°
2026-04-20 21:16 -3.10910 -48.52394 27894 ft 360 kts 188°
2026-04-20 21:16 -3.13379 -48.52868 28098 ft 361 kts 188°
2026-04-20 21:16 -3.15819 -48.53336 28306 ft 362 kts 188°
2026-04-20 21:17 -3.18295 -48.53811 28507 ft 363 kts 188°
2026-04-20 21:17 -3.20783 -48.54289 28712 ft 364 kts 188°
2026-04-20 21:17 -3.23275 -48.54767 28903 ft 365 kts 188°
2026-04-20 21:17 -3.25773 -48.55247 29099 ft 366 kts 188°
2026-04-20 21:18 -3.28285 -48.55729 29285 ft 368 kts 188°
2026-04-20 21:18 -3.30805 -48.56213 29484 ft 369 kts 188°
2026-04-20 21:18 -3.33329 -48.56698 29661 ft 370 kts 188°
2026-04-20 21:18 -3.35861 -48.57184 29836 ft 371 kts 188°
2026-04-20 21:19 -3.40959 -48.58163 29887 ft 374 kts 188°
2026-04-20 21:20 -3.48575 -48.59627 29729 ft 367 kts 189°
2026-04-20 21:20 -3.51053 -48.60104 29504 ft 357 kts 189°
2026-04-20 21:20 -3.52660 -48.60413 29246 ft 354 kts 189°
2026-04-20 21:20 -3.55857 -48.61028 28808 ft 345 kts 189°
2026-04-20 21:21 -3.58204 -48.61480 28448 ft 341 kts 189°
2026-04-20 21:21 -3.60497 -48.61920 28108 ft 338 kts 189°
2026-04-20 21:21 -3.62797 -48.62361 27768 ft 335 kts 188°
2026-04-20 21:21 -3.65076 -48.62799 27430 ft 332 kts 188°
2026-04-20 21:22 -3.67342 -48.63234 27095 ft 330 kts 188°
2026-04-20 21:22 -3.69591 -48.63666 26759 ft 328 kts 188°
2026-04-20 21:22 -3.71831 -48.64096 26421 ft 327 kts 188°
2026-04-20 21:22 -3.74056 -48.64524 26095 ft 325 kts 188°
2026-04-20 21:23 -3.76274 -48.64950 25761 ft 324 kts 188°
2026-04-20 21:23 -3.78479 -48.65374 25425 ft 322 kts 188°
2026-04-20 21:23 -3.79939 -48.65654 25199 ft 322 kts 188°
2026-04-20 21:23 -3.82132 -48.66076 24870 ft 320 kts 188°
2026-04-20 21:24 -3.84305 -48.66494 24507 ft 314 kts 188°
2026-04-20 21:24 -3.86419 -48.66901 24221 ft 303 kts 188°
2026-04-20 21:24 -3.88458 -48.67294 23884 ft 294 kts 188°
2026-04-20 21:24 -3.90439 -48.67676 23575 ft 287 kts 188°
2026-04-20 21:25 -3.92397 -48.68052 23219 ft 286 kts 188°
2026-04-20 21:25 -3.94410 -48.68437 22848 ft 306 kts 188°
2026-04-20 21:25 -3.96578 -48.68850 22504 ft 327 kts 189°
2026-04-20 21:25 -3.98876 -48.69289 22219 ft 346 kts 189°
2026-04-20 21:26 -4.01307 -48.69754 21875 ft 365 kts 189°
2026-04-20 21:26 -4.03834 -48.70240 21483 ft 370 kts 189°
2026-04-20 21:26 -4.06361 -48.70728 21089 ft 369 kts 189°
2026-04-20 21:26 -4.08875 -48.71213 20696 ft 367 kts 189°
2026-04-20 21:27 -4.11347 -48.71691 20316 ft 365 kts 189°
2026-04-20 21:27 -4.13834 -48.72170 19937 ft 363 kts 189°
2026-04-20 21:27 -4.16312 -48.72648 19549 ft 362 kts 189°
2026-04-20 21:27 -4.18785 -48.73124 19172 ft 361 kts 189°
2026-04-20 21:28 -4.21253 -48.73599 18781 ft 360 kts 189°
2026-04-20 21:28 -4.23711 -48.74072 18401 ft 359 kts 189°
2026-04-20 21:28 -4.26166 -48.74544 17994 ft 359 kts 189°
2026-04-20 21:28 -4.28607 -48.75014 17593 ft 357 kts 189°
2026-04-20 21:29 -4.31034 -48.75481 17207 ft 354 kts 189°
2026-04-20 21:29 -4.33452 -48.75947 16831 ft 352 kts 189°
2026-04-20 21:29 -4.35849 -48.76409 16464 ft 350 kts 189°
2026-04-20 21:29 -4.38238 -48.76868 16092 ft 348 kts 189°
2026-04-20 21:30 -4.40613 -48.77326 15727 ft 347 kts 189°
2026-04-20 21:30 -4.42972 -48.77780 15367 ft 345 kts 189°
2026-04-20 21:30 -4.45327 -48.78233 15006 ft 343 kts 189°
2026-04-20 21:30 -4.47667 -48.78684 14627 ft 342 kts 189°
2026-04-20 21:31 -4.50002 -48.79133 14264 ft 341 kts 189°
2026-04-20 21:31 -4.52331 -48.79582 13893 ft 340 kts 189°
2026-04-20 21:31 -4.54654 -48.80029 13504 ft 339 kts 189°
2026-04-20 21:31 -4.56959 -48.80473 13124 ft 337 kts 189°
2026-04-20 21:32 -4.59259 -48.80916 12755 ft 335 kts 189°
2026-04-20 21:32 -4.61541 -48.81356 12393 ft 333 kts 189°
2026-04-20 21:32 -4.63812 -48.81793 12033 ft 331 kts 189°
2026-04-20 21:32 -4.66072 -48.82229 11680 ft 329 kts 189°
2026-04-20 21:33 -4.68317 -48.82661 11325 ft 328 kts 189°
2026-04-20 21:33 -4.70523 -48.83086 10981 ft 326 kts 189°
2026-04-20 21:33 -4.72745 -48.83514 10630 ft 325 kts 189°
2026-04-20 21:33 -4.74956 -48.83940 10325 ft 322 kts 189°
2026-04-20 21:34 -4.77127 -48.84359 10156 ft 314 kts 189°
2026-04-20 21:34 -4.79242 -48.84768 10021 ft 306 kts 189°
2026-04-20 21:34 -4.81310 -48.85167 9861 ft 299 kts 189°
2026-04-20 21:34 -4.83315 -48.85553 9787 ft 289 kts 189°
2026-04-20 21:35 -4.85319 -48.85939 9306 ft 293 kts 189°
2026-04-20 21:35 -4.87298 -48.86320 8959 ft 286 kts 189°
2026-04-20 21:35 -4.89224 -48.86692 8647 ft 278 kts 189°
2026-04-20 21:35 -4.91101 -48.87054 8357 ft 271 kts 189°
2026-04-20 21:36 -4.92926 -48.87406 8078 ft 264 kts 189°
2026-04-20 21:36 -4.94709 -48.87750 7805 ft 257 kts 189°
2026-04-20 21:36 -4.96452 -48.88086 7543 ft 255 kts 189°
2026-04-20 21:36 -4.98199 -48.88422 7309 ft 258 kts 189°
2026-04-20 21:37 -5.00002 -48.88769 7048 ft 269 kts 189°
2026-04-20 21:37 -5.01862 -48.89127 6758 ft 273 kts 189°
2026-04-20 21:37 -5.03724 -48.89486 6472 ft 273 kts 189°
2026-04-20 21:37 -5.05586 -48.89845 6185 ft 272 kts 189°
2026-04-20 21:38 -5.07447 -48.90205 5879 ft 272 kts 189°
2026-04-20 21:38 -5.09299 -48.90562 5591 ft 271 kts 189°
2026-04-20 21:38 -5.11126 -48.90915 5309 ft 270 kts 189°
2026-04-20 21:38 -5.12996 -48.91276 5028 ft 269 kts 190°
2026-04-20 21:39 -5.14811 -48.91626 4751 ft 269 kts 190°
2026-04-20 21:39 -5.16642 -48.91979 4469 ft 268 kts 190°
2026-04-20 21:39 -5.18452 -48.92361 4262 ft 264 kts 197°
2026-04-20 21:39 -5.19967 -48.93339 4156 ft 254 kts 224°
2026-04-20 21:40 -5.21103 -48.94632 4018 ft 240 kts 230°
2026-04-20 21:40 -5.22102 -48.95874 3927 ft 218 kts 230°
2026-04-20 21:40 -5.23007 -48.96997 3833 ft 199 kts 230°
2026-04-20 21:40 -5.23865 -48.98049 3766 ft 189 kts 229°
2026-04-20 21:41 -5.24676 -48.99040 3585 ft 178 kts 229°
2026-04-20 21:41 -5.25443 -48.99973 3470 ft 168 kts 229°
2026-04-20 21:41 -5.26149 -49.00831 3288 ft 157 kts 229°
2026-04-20 21:41 -5.26829 -49.01656 3099 ft 151 kts 229°
2026-04-20 21:42 -5.27499 -49.02468 2945 ft 152 kts 229°
2026-04-20 21:42 -5.28179 -49.03290 2790 ft 153 kts 230°
2026-04-20 21:42 -5.28859 -49.04113 2605 ft 153 kts 230°
2026-04-20 21:42 -5.29535 -49.04931 2406 ft 152 kts 230°
2026-04-20 21:43 -5.30206 -49.05742 2215 ft 151 kts 230°
2026-04-20 21:43 -5.30876 -49.06552 2023 ft 150 kts 230°
2026-04-20 21:43 -5.31545 -49.07362 1828 ft 151 kts 230°
2026-04-20 21:43 -5.32213 -49.08170 1629 ft 150 kts 230°
2026-04-20 21:44 -5.32872 -49.08968 1410 ft 148 kts 230°
2026-04-20 21:44 -5.33525 -49.09759 1223 ft 147 kts 230°
2026-04-20 21:44 -5.34176 -49.10558 1015 ft 149 kts 230°
2026-04-20 21:44 -5.34823 -49.11354 821 ft 148 kts 230°
2026-04-20 21:45 -5.35484 -49.12141 634 ft 147 kts 229°
2026-04-20 21:45 -5.36144 -49.12928 436 ft 148 kts 230°
2026-04-20 21:45 -5.36760 -49.13678 374 ft 105 kts 230°
2026-04-20 21:45 -5.36964 -49.13910 373 ft 16 kts 191°
2026-04-20 21:46 -5.37044 -49.13867 372 ft 11 kts 140°
2026-04-20 21:46 -5.37090 -49.13828 372 ft 8 kts 138°
2026-04-20 21:46 -5.37108 -49.13811 372 ft 0 kts 137°
2026-04-20 21:46 -5.37115 -49.13805 372 ft 5 kts 139°
2026-04-20 21:47 -5.37136 -49.13786 372 ft 6 kts 140°
2026-04-20 21:47 -5.37146 -49.13779 372 ft 0 kts 140°